Volver al catálogo

ARGOS

ActivoCienciaSSO
NORAD 25634·PAYLOAD·🇺🇸 United States

Lanzado Feb 23, 1999 desde Vandenberg Space Force Base

Loading…

Próximos Pases (próximas 24 horas)

TLE

ActualizadoSource: Space-Track

Época: Sep 14, 2026, 14:46 UTC

1 25634U 99008A   26257.61542273  .00000017  00000-0  27923-4 0  9993
2 25634  98.5241 220.3681 0010856 136.4874 223.7161 14.20001435426998

Sigue ARGOS en tiempo real con AllMySat

Download on the App Store